This is the latest recevied weather packets stored in our database for station/object KK6LZB. If no packets are shown the sender has not sent any weather packets the latest 10 day(s).
| Time | Temp. | Humidity | Pressure | Rain* | Wind** | Luminosity | Snow |
|---|---|---|---|---|---|---|---|
| 1778169394 | 16.67° C | 89% | 1018.6 hPa | 0 mm | - | 50 W/m² | - |
| 1778169091 | 16.67° C | 90% | 1018.8 hPa | 0 mm | - | 49 W/m² | - |
| 1778168787 | 16.11° C | 88% | 1018.6 hPa | 0 mm | - | 46 W/m² | - |
| 1778168485 | 16.11° C | 90% | 1018.8 hPa | 0 mm | - | 45 W/m² | - |
| 1778168181 | 16.11° C | 90% | 1018.7 hPa | 0 mm | - | 43 W/m² | - |
| 1778167878 | 15.56° C | 90% | 1019 hPa | 0 mm | - | 42 W/m² | - |
| 1778167574 | 15.56° C | 91% | 1019 hPa | 0 mm | - | 41 W/m² | - |
| 1778167270 | 15.56° C | 91% | 1019 hPa | 0 mm | - | 40 W/m² | - |
| 1778166966 | 15.56° C | 92% | 1018.8 hPa | 0 mm | - | 39 W/m² | - |
| 1778166664 | 15° C | 92% | 1018.7 hPa | 0 mm | - | 37 W/m² | - |
| 1778166361 | 15° C | 93% | 1018.8 hPa | 0 mm | - | 36 W/m² | - |
| 1778166057 | 14.44° C | 93% | 1018.7 hPa | 0 mm | - | 35 W/m² | - |
| 1778165752 | 14.44° C | 93% | 1018.8 hPa | 0 mm | - | 33 W/m² | - |
| 1778165450 | 14.44° C | 94% | 1018.6 hPa | 0 mm | - | 33 W/m² | - |
| 1778165146 | 13.89° C | 95% | 1018.7 hPa | 0 mm | - | 32 W/m² | - |
| 1778164845 | 13.89° C | 96% | 1018.6 hPa | 0 mm | - | 31 W/m² | - |
| 1778164541 | 13.89° C | 97% | 1018.6 hPa | 0 mm | - | 30 W/m² | - |
| 1778164239 | 13.33° C | 97% | 1018.6 hPa | 0 mm | - | 29 W/m² | - |
| 1778163939 | 13.33° C | 97% | 1018.5 hPa | 0 mm | - | 28 W/m² | - |
| 1778163636 | 12.78° C | 98% | 1018.5 hPa | 0 mm | - | 27 W/m² | - |
| 1778163332 | 12.78° C | 98% | 1018.5 hPa | 0 mm | - | 26 W/m² | - |
| 1778163029 | 12.78° C | 98% | 1018.3 hPa | 0 mm | - | 25 W/m² | - |
| 1778162726 | 12.78° C | 98% | 1018.3 hPa | 0 mm | - | 24 W/m² | - |
| 1778162424 | 12.78° C | 98% | 1018.2 hPa | 0 mm | - | 28 W/m² | - |
| 1778162120 | 12.78° C | 99% | 1018.2 hPa | 0 mm | - | 35 W/m² | - |
* Rain latest hour (hover to see other rain measurements)
** Current wind speed in m/s (hover to see current wind gust speed)